Regional Weather Roundup
Issued by NWS Northern Indiana

Home | Current Version | Previous Version | Graphics & Text | Print | Product List | Glossary On
Versions: 1 2 3 4 5 6 7 8 9 10 11 12 13 14 15 16 17 18 19 20 21 22 23 24 25 26 27 28 29 30 31 32 33 34 35 36 37 38 39 40 41 42 43 44 45 46 47 48 49 50
000
ASUS43 KIWX 202100
RWRIWX

KIWX WEATHER ROUNDUP
NATIONAL WEATHER SERVICE NORTHERN INDIANA
500 PM EDT WED AUG 20 2014

NOTE: "FAIR" INDICATES FEW OR NO CLOUDS BELOW 12,000 FEET WITH NO
SIGNIFICANT WEATHER AND/OR OBSTRUCTIONS TO VISIBILITY.

* THESE STATIONS ARE NOT UNDER NWS QUALITY CONTROL. THEY ALSO MAY NOT
  REPORT WEATHER SUCH AS PRECIPITATION OR FOG.

INZ001>027-202200-
NORTHERN INDIANA

CITY           SKY/WX    TMP DP  RH WIND       PRES   REMARKS
GARY*          MOSUNNY   86  61  42 SW10      29.87F
VALPARAISO     MOSUNNY   85  62  46 SW12      29.90F
KNOX*          SUNNY     84  63  49 SW7       29.88F
SOUTH BEND     MOSUNNY   85  65  51 W13       29.90F
ELKHART*       MOSUNNY   84  63  48 W12       29.91F
GOSHEN         MOSUNNY   83  68  60 W8        29.90F
MONTICELLO*    MOSUNNY   82  71  70 SW6       29.90F
WARSAW*        MOSUNNY   82  66  57 W9G18     29.91F
ANGOLA*        MOSUNNY   84  81  89 W8        29.91S HX  98
FORT WAYNE     MOSUNNY   83  65  54 W14       29.92S
PERU/GRISSOM   MOSUNNY   84  71  65 W13       29.92F

$$
INZ028>050-202200-
CENTRAL INDIANA

CITY           SKY/WX    TMP DP  RH WIND       PRES   REMARKS
LAFAYETTE      PTSUNNY   79  67  66 W8        29.90F
KOKOMO*        MOSUNNY   84  68  58 W10       29.92S
MUNCIE*        MOSUNNY   84  67  56 W5        29.93F
INDIANAPOLIS   CLOUDY    77  65  66 W6        29.94S

$$
MIZ043>046-050>051-056>058-064>065-071>073-077>080-202200-
SOUTHWEST LOWER MICHIGAN

CITY           SKY/WX    TMP DP  RH WIND       PRES   REMARKS
BATTLE CREEK   SUNNY     81  61  50 W15       29.91F
BENTON HARBOR  SUNNY     82  64  54 W9        29.88F
COLDWATER*     MOSUNNY   83  64  52 W10G17    29.91S
HILLSDALE*     SUNNY     82  66  57 W10       29.91F
HOLLAND        SUNNY     79  65  62 W7        29.91F
GRAND RAPIDS   MOSUNNY   79  66  64 W14G23    29.90F
KALAMAZOO      MOSUNNY   83  63  50 NW13G21   29.91S
STURGIS*       MOSUNNY   82  63  51 W13G18    29.91S
THREE RIVERS*  FAIR      83  65  55 NW12      29.91S

$$
OHZ001>008-015>018-024>025-202200-
NORTHWEST OHIO

CITY           SKY/WX    TMP DP  RH WIND       PRES   REMARKS
DEFIANCE       SUNNY     84  64  50 VRB7      29.91S
FINDLAY        SUNNY     85  65  51 W17G24    29.90F
TOLEDO EXPRESS PTSUNNY   84  65  52 W12       29.88F
TOLEDO METCALF MOSUNNY   85  63  47 W16G28    29.89F
LIMA           SUNNY     83  67  58 W17       29.93F

$$
&&


USA.gov is the U.S. government's official web portal to all federal, state and local government web resources and services.